Weather History for Fredericksburg, TX

Change the Weather History Date:

Saturday, April 19, 2014

  Actual Average (KSAT) Record (KSAT)
Temperature  
Mean Temperature 62 °F 70 °F  
Max Temperature 76 °F 81 °F 101 °F (1996)
Min Temperature 48 °F 59 °F 42 °F (1901)
Degree Days  
Heating Degree Days 4 1  
Month to date heating degree days 34  
Since 1 July heating degree days 1489  
Cooling Degree Days 0 6  
Month to date cooling degree days 90  
Year to date cooling degree days 181  
Growing Degree Days 12 (Base 50)    
Moisture  
Dew Point 52 °F    
Average Humidity 65    
Maximum Humidity 93    
Minimum Humidity 42    
Precipitation  
Precipitation 0.00 in 0.07 in 2.80 in (1977)
Month to date precipitation 1.18  
Year to date precipitation 7.04  
Snow  
Snow 0.00 in - - ()
Month to date snowfall  
Since 1 July snowfall  
Snow Depth -    
Sea Level Pressure  
Sea Level Pressure 30.13 in    
Wind  
Wind Speed 4 mph (SSE)    
Max Wind Speed 13 mph    
Max Gust Speed 18 mph    
Visibility 10 miles    
Events      
T = Trace of Precipitation, MM = Missing Value Source: NWS Daily Summary

Daily Weather History Graph

Daily Weather History Graph

Search for Another Location

Airport:

Trip Planner

Search our weather history database for the weather conditions in past years. The results will help you decide how hot, cold, wet, or windy it might be!

Date:

Astronomy

Apr. 19, 2014 Rise Set
Actual Time 7:04 AM CDT 8:05 PM CDT
Civil Twilight 6:39 AM CDT 8:30 PM CDT
Nautical Twilight 6:10 AM CDT 8:59 PM CDT
Astronomical Twilight 5:39 AM CDT 9:30 PM CDT
Moon No Moon Rise 10:33 AM CDT (4/19)
Length of Visible Light 13h 51m
Length of Day
13h 01m
Waning Gibbous, 78% of the Moon is Illuminated
Apr 19
Waning Gibbous
Apr 22
Last Quarter
Apr 29
New
May 6
First Quarter
May 14
Full

Hourly Weather History & Observations

Time (CDT) Temp. Dew Point Humidity Pressure Visibility Wind Dir Wind Speed Gust Speed Precip Events Conditions
12:15 AM 61.2 °F 51.8 °F 71% 30.16 in 10.0 mi Calm Calm - N/A   Overcast
12:35 AM 60.6 °F 51.8 °F 73% 30.16 in 10.0 mi Calm Calm - N/A   Overcast
12:55 AM 60.4 °F 52.0 °F 74% 30.15 in 10.0 mi Calm Calm - N/A   Overcast
1:15 AM 60.8 °F 52.2 °F 73% 30.15 in 10.0 mi SSE 3.5 mph - N/A   Scattered Clouds
1:35 AM 60.8 °F 52.3 °F 74% 30.14 in 10.0 mi Calm Calm - N/A   Clear
1:55 AM 59.9 °F 52.2 °F 76% 30.14 in 10.0 mi Calm Calm - N/A   Clear
2:15 AM 55.0 °F 50.7 °F 85% 30.14 in 10.0 mi North 3.5 mph - N/A   Clear
2:35 AM 55.0 °F 51.1 °F 86% 30.14 in 10.0 mi Calm Calm - N/A   Clear
2:55 AM 54.9 °F 51.4 °F 88% 30.14 in 10.0 mi Calm Calm - N/A   Clear
3:15 AM 54.7 °F 50.9 °F 87% 30.14 in 10.0 mi Calm Calm - N/A   Clear
3:35 AM 58.3 °F 52.0 °F 80% 30.12 in 10.0 mi SE 3.5 mph - N/A   Clear
3:55 AM 57.4 °F 52.0 °F 82% 30.12 in 10.0 mi SE 3.5 mph - N/A   Clear
4:15 AM 57.2 °F 52.0 °F 83% 30.12 in 10.0 mi Calm Calm - N/A   Clear
4:35 AM 56.3 °F 51.8 °F 85% 30.12 in 10.0 mi ESE 4.6 mph - N/A   Clear
4:55 AM 55.8 °F 51.8 °F 87% 30.12 in 10.0 mi ESE 4.6 mph - N/A   Clear
5:15 AM 55.4 °F 51.8 °F 88% 30.12 in 10.0 mi ESE 3.5 mph - N/A   Clear
5:35 AM 54.7 °F 51.4 °F 89% 30.12 in 10.0 mi ESE 3.5 mph - N/A   Clear
5:55 AM 50.4 °F 47.5 °F 90% 30.12 in 10.0 mi Calm Calm - N/A   Clear
6:15 AM 48.6 °F 46.6 °F 93% 30.13 in 10.0 mi Calm Calm - N/A   Clear
6:35 AM 49.1 °F 46.9 °F 92% 30.14 in 10.0 mi Calm Calm - N/A   Clear
6:55 AM 49.1 °F 46.6 °F 91% 30.14 in 10.0 mi Calm Calm - N/A   Clear
7:15 AM 48.4 °F 46.6 °F 93% 30.16 in 10.0 mi NW 3.5 mph - N/A   Clear
7:35 AM 49.3 °F 46.9 °F 92% 30.16 in 10.0 mi Calm Calm - N/A   Clear
7:55 AM 50.2 °F 48.2 °F 93% 30.16 in 10.0 mi Calm Calm - N/A   Clear
8:15 AM 53.1 °F 50.4 °F 91% 30.17 in 10.0 mi Calm Calm - N/A   Clear
8:35 AM 55.9 °F 52.3 °F 88% 30.17 in 10.0 mi Calm Calm - N/A   Clear
8:55 AM 59.0 °F 53.6 °F 82% 30.18 in 10.0 mi Calm Calm - N/A   Clear
9:15 AM 62.1 °F 53.8 °F 74% 30.18 in 10.0 mi SSW 6.9 mph - N/A   Clear
9:35 AM 64.2 °F 54.0 °F 69% 30.18 in 10.0 mi SSW 6.9 mph - N/A   Clear
9:55 AM 65.7 °F 54.1 °F 66% 30.18 in 10.0 mi South 9.2 mph - N/A   Clear
10:15 AM 67.1 °F 53.8 °F 62% 30.18 in 10.0 mi South 8.1 mph - N/A   Clear
10:35 AM 66.9 °F 53.8 °F 63% 30.18 in 10.0 mi SSE 6.9 mph - N/A   Clear
10:55 AM 67.3 °F 53.6 °F 61% 30.19 in 10.0 mi South 9.2 mph - N/A   Clear
11:15 AM 69.3 °F 53.6 °F 57% 30.19 in 10.0 mi SSE 9.2 mph - N/A   Clear
11:35 AM 68.7 °F 53.4 °F 58% 30.18 in 10.0 mi SSE 8.1 mph - N/A   Clear
11:55 AM 69.6 °F 52.5 °F 54% 30.17 in 10.0 mi SSE 8.1 mph - N/A   Clear
12:15 PM 70.9 °F 52.2 °F 51% 30.17 in 10.0 mi SSE 8.1 mph - N/A   Clear
12:35 PM 70.9 °F 52.0 °F 51% 30.16 in 10.0 mi SE 6.9 mph - N/A   Clear
12:55 PM 71.2 °F 50.9 °F 49% 30.16 in 10.0 mi SSE 6.9 mph - N/A   Clear
1:15 PM 72.3 °F 51.3 °F 47% 30.15 in 10.0 mi South 8.1 mph - N/A   Clear
1:35 PM 72.9 °F 51.3 °F 47% 30.15 in 10.0 mi SSE 6.9 mph - N/A   Clear
1:55 PM 73.6 °F 51.1 °F 45% 30.14 in 10.0 mi SSE 9.2 mph - N/A   Clear
2:15 PM 73.0 °F 51.1 °F 46% 30.13 in 10.0 mi SE 6.9 mph - N/A   Clear
2:35 PM 74.1 °F 51.1 °F 44% 30.11 in 10.0 mi SSE 9.2 mph 16.1 mph N/A   Clear
2:55 PM 73.0 °F 50.9 °F 46% 30.11 in 10.0 mi SE 9.2 mph 17.3 mph N/A   Clear
3:15 PM 73.2 °F 50.9 °F 45% 30.11 in 10.0 mi SSE 10.4 mph 16.1 mph N/A   Clear
3:35 PM 74.7 °F 50.9 °F 43% 30.10 in 10.0 mi SE 9.2 mph - N/A   Clear
3:55 PM 75.2 °F 50.9 °F 42% 30.09 in 10.0 mi South 11.5 mph - N/A   Clear
4:15 PM 74.8 °F 50.5 °F 42% 30.09 in 10.0 mi SE 8.1 mph 16.1 mph N/A   Clear
4:35 PM 74.7 °F 50.5 °F 43% 30.09 in 10.0 mi SE 11.5 mph 17.3 mph N/A   Scattered Clouds
5:15 PM 75.2 °F 50.7 °F 42% 30.08 in 10.0 mi South 9.2 mph - N/A   Mostly Cloudy
5:35 PM 74.1 °F 50.5 °F 43% 30.09 in 10.0 mi South 9.2 mph 18.4 mph N/A   Mostly Cloudy
5:55 PM 73.6 °F 50.4 °F 44% 30.09 in 10.0 mi SSE 6.9 mph - N/A   Scattered Clouds
6:15 PM 73.9 °F 51.4 °F 45% 30.08 in 10.0 mi SE 6.9 mph - N/A   Scattered Clouds
6:35 PM 73.4 °F 51.4 °F 46% 30.08 in 10.0 mi SSE 8.1 mph - N/A   Scattered Clouds
6:55 PM 73.4 °F 51.3 °F 46% 30.07 in 10.0 mi SE 9.2 mph - N/A   Scattered Clouds
7:15 PM 72.0 °F 51.1 °F 48% 30.07 in 10.0 mi SE 9.2 mph - N/A   Clear
7:35 PM 71.2 °F 50.9 °F 49% 30.06 in 10.0 mi SSE 9.2 mph - N/A   Clear
7:55 PM 70.7 °F 51.4 °F 50% 30.06 in 10.0 mi SSE 8.1 mph - N/A   Scattered Clouds
8:15 PM 70.5 °F 52.0 °F 52% 30.05 in 10.0 mi SSE 5.8 mph - N/A   Overcast
8:35 PM 69.8 °F 52.2 °F 53% 30.05 in 10.0 mi SE 5.8 mph - N/A   Overcast
8:55 PM 68.9 °F 52.2 °F 55% 30.05 in 10.0 mi SE 5.8 mph - N/A   Scattered Clouds
9:15 PM 68.2 °F 52.0 °F 56% 30.06 in 10.0 mi SSE 6.9 mph - N/A   Clear
9:35 PM 68.2 °F 52.7 °F 58% 30.08 in 10.0 mi SSE 5.8 mph 16.1 mph N/A   Scattered Clouds
9:55 PM 68.2 °F 53.2 °F 59% 30.11 in 10.0 mi SSE 8.1 mph - N/A   Mostly Cloudy
10:15 PM 68.2 °F 53.6 °F 60% 30.12 in 10.0 mi SE 8.1 mph - N/A   Overcast
10:35 PM 67.8 °F 54.0 °F 61% 30.12 in 10.0 mi SSE 8.1 mph - N/A   Overcast
10:55 PM 67.5 °F 54.0 °F 62% 30.12 in 10.0 mi SSE 8.1 mph - N/A   Overcast
11:15 PM 66.7 °F 54.1 °F 64% 30.11 in 10.0 mi SSE 11.5 mph - N/A   Overcast
11:35 PM 66.6 °F 54.5 °F 65% 30.11 in 10.0 mi SSE 10.4 mph - N/A   Overcast
11:55 PM 66.2 °F 54.5 °F 66% 30.12 in 10.0 mi South 12.7 mph - N/A   Overcast